Flag for U.S.A. Weather past 2 weeks in Medford, Oregon, U.S.A.

Now
48 °F

Broken clouds.


Feels Like: 47 °F
Forecast: 43 / 58 °F
Wind: 3 mph from Southwest

Location: Rogue Valley International Airport

Current Time: Apr 25, 2015 at 9:33:22 AM

Latest Report: Apr 25, 2015 at 8:53 AM


Visibility: 10 mi

Pressure: 29.99 "Hg

Humidity: 80%

Dew point: 42 °F

Location of MedfordLocation

Historic Weather in Medford — Graph

°F

Medford temperature yesterday

Maximum temperature yesterday: 56 °F (at 12:53 PM)
Minimum temperature yesterday: 42 °F (at 5:53 AM)
Average temperature yesterday: 49 °F

Past Weeks' High & Low Weather Summary

 TemperatureHumidityPressure
High85 °F (Apr 19, 4:53 PM)100% (Apr 13, 7:53 PM)30.50 "Hg (Apr 13, 7:53 PM)
Low35 °F (Apr 12, 5:53 AM)12% (Apr 19, 5:53 PM)29.73 "Hg (Apr 20, 5:53 PM)
Average54 °F60%30.06 "Hg
* Reported Apr 10 7:53 AM — Apr 25 7:53 AM, Medford, Weather by CustomWeather, © 2015

Note: Actual official high and low records may vary slightly from our data, if they occured in-between our weather recording intervals... More about our weather records

Advertising

Medford weather history for previous 24 hours

 ConditionsComfort  
Time TempWeatherWind HumidityBarometerVisibility
7:53 AM
Sat, Apr 25
46 °FMostly cloudy.No wind83%29.98 "Hg10 mi
6:53 AM45 °FPassing clouds.3 mph90%29.96 "Hg10 mi
5:53 AM46 °FOvercast.3 mph86%29.96 "Hg10 mi
5:04 AM46 °FMostly cloudy.No wind86%29.94 "Hg10 mi
3:53 AM46 °FLight rain. Overcast.3 mph86%29.93 "Hg9 mi
2:53 AM47 °FOvercast.No wind83%29.92 "Hg10 mi
1:53 AM46 °FOvercast.3 mph86%29.92 "Hg10 mi
12:53 AM46 °FMostly cloudy.3 mph86%29.92 "Hg10 mi
11:53 PM
Fri, Apr 24
46 °FLight rain. Overcast.6 mph89%29.92 "Hg10 mi
10:53 PM47 °FOvercast.6 mph80%29.92 "Hg10 mi
9:53 PM47 °FOvercast.6 mph83%29.93 "Hg10 mi
8:53 PM49 °FOvercast.7 mph80%29.92 "Hg10 mi
7:53 PM50 °FCloudy.3 mph80%29.91 "Hg10 mi
6:53 PM50 °FCloudy.3 mph74%29.91 "Hg10 mi
5:53 PM52 °FCloudy.12 mph66%29.92 "Hg10 mi
3:53 PM52 °FLight rain. More clouds than sun.6 mph61%29.90 "Hg10 mi
2:53 PM56 °FMore clouds than sun.6 mph46%29.90 "Hg10 mi
1:53 PM55 °FCloudy.5 mph45%29.90 "Hg10 mi
12:53 PM56 °FScattered clouds.3 mph46%29.92 "Hg10 mi
11:53 AM54 °FBroken clouds.3 mph49%29.95 "Hg10 mi
10:53 AM53 °FBroken clouds.7 mph55%29.96 "Hg10 mi
9:53 AM50 °FScattered clouds.5 mph59%29.96 "Hg10 mi
Weather by CustomWeather, © 2015

See weather overviewHow to use our weather pages